Orbital Elements at Epoch 2459200.5 (2020-Dec-17.0) TDB
Reference: JPL 17 (heliocentric ecliptic J2000)
Element | Value | Uncertainty (1-sigma) | Units |
e | .2871448545472554 | 6.5783e-08 | |
a | 2.64220173245754 | 1.3706e-08 | au |
q | 1.883507100306513 | 1.7155e-07 | au |
i | 13.74750396512254 | 8.5953e-06 | deg |
node | 183.6676750943955 | 1.6096e-05 | deg |
peri | 141.1792098695647 | 1.9794e-05 | deg |
M | 289.2793082923018 | 1.1258e-05 | deg |
tp | 2459508.670728752824 (2021-Oct-21.17072875) | 5.0128e-05 | TDB |
period | 1568.727053880614 4.29 | 1.2206e-05 3.342e-08 | d yr |
n | .2294854283984302 | 1.7856e-09 | deg/d |
Q | 3.400896364608565 | 1.7641e-08 | au |
|
| | Orbit Determination Parameters
Additional Information
|